Torna al catalogo

STARLINK-32515

AttivoComunicazioniVLEO
NORAD 61705·PAYLOAD·🇺🇸 United States

Lanciato Oct 30, 2024 da Vandenberg Space Force Base

Loading…

Prossimi Passaggi (prossime 24 ore)

TLE

AggiornatoSource: CelesTrak SupGP

Epoca: Sep 14, 2026, 22:36 UTC

1 61705C 24195U   26257.94215278 -.00011889  00000+0 -35128-3 0  2577
2 61705  53.1585 355.3641 0001121  89.4705 143.7654 15.34395426    16

Traccia STARLINK-32515 in tempo reale con AllMySat

Download on the App Store